| time (UTC) | temp C | wind direction | speed KPH | gust KPH | rain 1hr cm | rain 24hr cm | rain mn cm | humidity % | barometer mb |
| 20260503215401 | 20 | 141 | 6.4 | 17.7 | 0.00 | 0.00 | 0.00 | 52 | 1017.3 |
| 20260503214912 | 19 | 172 | 4.8 | 17.7 | 0.00 | 0.00 | 0.00 | 53 | 1017.2 |
| 20260503214416 | 18 | 149 | 8.0 | 17.7 | 0.00 | 0.00 | 0.00 | 53 | 1017.3 |
| 20260503213913 | 18 | 181 | 6.4 | 16.1 | 0.00 | 0.00 | 0.00 | 53 | 1017.2 |
| 20260503213434 | 19 | 161 | 6.4 | 16.1 | 0.00 | 0.00 | 0.00 | 51 | 1017.2 |
| 20260503212909 | 19 | 172 | 9.7 | 20.9 | 0.00 | 0.00 | 0.00 | 53 | 1017.2 |
| 20260503212408 | 20 | 194 | 8.0 | 22.5 | 0.00 | 0.00 | 0.00 | 51 | 1017.2 |
| 20260503211940 | 19 | 132 | 11.3 | 22.5 | 0.00 | 0.00 | 0.00 | 53 | 1017.2 |
| 20260503211438 | 19 | 165 | 8.0 | 17.7 | 0.00 | 0.00 | 0.00 | 52 | 1017.4 |
| 20260503210930 | 20 | 163 | 8.0 | 19.3 | 0.00 | 0.00 | 0.00 | 53 | 1017.3 |
| 20260503210416 | 19 | 154 | 9.7 | 19.3 | 0.00 | 0.03 | 0.00 | 53 | 1017.5 |
| 20260503205906 | 20 | 153 | 12.9 | 20.9 | 0.00 | 0.03 | 0.00 | 52 | 1017.4 |
| 20260503205422 | 20 | 111 | 11.3 | 24.1 | 0.00 | 0.03 | 0.00 | 52 | 1017.4 |
| 20260503204907 | 20 | 147 | 12.9 | 24.1 | 0.00 | 0.03 | 0.00 | 51 | 1017.4 |
| 20260503204423 | 20 | 135 | 11.3 | 22.5 | 0.00 | 0.03 | 0.00 | 52 | 1017.5 |
| 20260503203938 | 20 | 147 | 9.7 | 22.5 | 0.00 | 0.03 | 0.00 | 52 | 1017.4 |
| 20260503203429 | 19 | 156 | 8.0 | 25.7 | 0.00 | 0.03 | 0.00 | 52 | 1017.4 |
| 20260503202915 | 20 | 170 | 11.3 | 25.7 | 0.00 | 0.03 | 0.00 | 52 | 1017.5 |
| 20260503201922 | 18 | 183 | 12.9 | 19.3 | 0.00 | 0.03 | 0.00 | 52 | 1017.6 |
| 20260503200907 | 19 | 144 | 9.7 | 19.3 | 0.00 | 0.03 | 0.00 | 52 | 1017.7 |
| 20260503200427 | 19 | 139 | 9.7 | 19.3 | 0.00 | 0.03 | 0.00 | 51 | 1017.7 |
| 20260503195920 | 19 | 153 | 6.4 | 14.5 | 0.00 | 0.03 | 0.00 | 51 | 1017.7 |
| 20260503195431 | 19 | 200 | 6.4 | 19.3 | 0.00 | 0.03 | 0.00 | 52 | 1017.8 |
| 20260503194941 | 19 | 169 | 11.3 | 20.9 | 0.00 | 0.03 | 0.00 | 51 | 1017.9 |
| 20260503194424 | 20 | 179 | 11.3 | 20.9 | 0.00 | 0.03 | 0.00 | 49 | 1018.0 |
| 20260503193922 | 20 | 145 | 8.0 | 16.1 | 0.00 | 0.03 | 0.00 | 47 | 1018.1 |
| 20260503193442 | 19 | 169 | 3.2 | 12.9 | 0.00 | 0.05 | 0.00 | 49 | 1018.1 |
| 20260503192915 | 20 | 151 | 6.4 | 14.5 | 0.00 | 0.05 | 0.00 | 49 | 1018.3 |
| 20260503192402 | 20 | 210 | 6.4 | 14.5 | 0.00 | 0.10 | 0.00 | 47 | 1018.3 |
| 20260503191409 | 21 | 222 | 4.8 | 12.9 | 0.00 | 0.13 | 0.00 | 43 | 1018.5 |
| 20260503190434 | 20 | 236 | 3.2 | 14.5 | 0.00 | 0.13 | 0.00 | 44 | 1018.6 |
| 20260503185919 | 20 | 318 | 6.4 | 14.5 | 0.00 | 0.13 | 0.00 | 44 | 1018.8 |
| 20260503184915 | 20 | 2 | 6.4 | 14.5 | 0.00 | 0.15 | 0.00 | 43 | 1018.8 |
| 20260503184428 | 20 | 330 | 4.8 | 14.5 | 0.00 | 0.15 | 0.00 | 41 | 1019.0 |
| 20260503183925 | 20 | 315 | 6.4 | 14.5 | 0.00 | 0.15 | 0.00 | 43 | 1019.0 |
| 20260503183421 | 21 | 331 | 6.4 | 14.5 | 0.00 | 0.18 | 0.00 | 40 | 1019.1 |
| 20260503182938 | 20 | 261 | 4.8 | 12.9 | 0.00 | 0.18 | 0.00 | 44 | 1019.1 |
| 20260503182435 | 20 | 309 | 4.8 | 16.1 | 0.00 | 0.20 | 0.00 | 42 | 1019.1 |
| 20260503181930 | 20 | 269 | 8.0 | 16.1 | 0.00 | 0.23 | 0.00 | 42 | 1019.2 |
| 20260503180930 | 20 | 297 | 4.8 | 16.1 | 0.00 | 0.23 | 0.00 | 43 | 1019.2 |
| 20260503180417 | 21 | 326 | 11.3 | 16.1 | 0.00 | 0.23 | 0.00 | 43 | 1019.2 |
| 20260503175920 | 21 | 284 | 4.8 | 16.1 | 0.00 | 0.25 | 0.00 | 40 | 1019.3 |
| 20260503175412 | 21 | 313 | 6.4 | 17.7 | 0.00 | 0.25 | 0.00 | 42 | 1019.2 |
| 20260503174921 | 21 | 248 | 4.8 | 20.9 | 0.00 | 0.25 | 0.00 | 43 | 1019.2 |
| 20260503174440 | 21 | 261 | 9.7 | 20.9 | 0.00 | 0.28 | 0.00 | 43 | 1019.1 |
| 20260503173941 | 20 | 328 | 6.4 | 17.7 | 0.00 | 0.28 | 0.00 | 47 | 1019.1 |
| 20260503173417 | 20 | 320 | 11.3 | 17.7 | 0.00 | 0.28 | 0.00 | 45 | 1019.3 |
| 20260503172902 | 20 | 266 | 4.8 | 16.1 | 0.00 | 0.30 | 0.00 | 45 | 1019.4 |
| 20260503171938 | 20 | 263 | 6.4 | 16.1 | 0.00 | 0.41 | 0.00 | 44 | 1019.5 |
| 20260503171404 | 20 | 319 | 4.8 | 12.9 | 0.00 | 0.43 | 0.00 | 49 | 1019.5 |
| 20260503170919 | 20 | 308 | 4.8 | 12.9 | 0.00 | 0.46 | 0.00 | 46 | 1019.6 |
| 20260503170434 | 20 | 343 | 4.8 | 12.9 | 0.00 | 0.46 | 0.00 | 48 | 1019.6 |
| 20260503150905 | 17 | 318 | 6.4 | 12.9 | 0.00 | 0.84 | 0.00 | 55 | 1020.1 |
| 20260503150441 | 17 | 55 | 4.8 | 11.3 | 0.00 | 0.84 | 0.00 | 59 | 1020.1 |
| 20260503131411 | 14 | 317 | 4.8 | 12.9 | 0.00 | 1.57 | 0.00 | 86 | 1019.7 |
| 20260503130901 | 13 | 350 | 6.4 | 12.9 | 0.00 | 1.60 | 0.00 | 88 | 1019.7 |
| 20260503110417 | 5 | 53 | 1.6 | 3.2 | 0.00 | 1.83 | 0.00 | 93 | 1018.4 |
| 20260503090417 | 6 | 21 | 1.6 | 3.2 | 0.00 | 2.08 | 0.00 | 92 | 1016.9 |
| 20260503081424 | 7 | 19 | 1.6 | 3.2 | 0.00 | 2.18 | 0.00 | 92 | 1016.7 |
| 20260503080437 | 7 | 17 | 1.6 | 3.2 | 0.00 | 2.21 | 0.00 | 92 | 1016.7 |
| 20260503072906 | 8 | 353 | 1.6 | 4.8 | 0.00 | 2.29 | 0.00 | 92 | 1016.2 |
| 20260503072444 | 8 | 303 | 1.6 | 4.8 | 0.00 | 2.29 | 0.00 | 92 | 1016.3 |
| 20260503071405 | 8 | 326 | 1.6 | 4.8 | 0.00 | 2.29 | 0.00 | 92 | 1016.3 |
| 20260503070903 | 8 | 328 | 1.6 | 4.8 | 0.00 | 2.31 | 0.00 | 92 | 1016.3 |
| 20260503070403 | 8 | 326 | 1.6 | 4.8 | 0.00 | 2.31 | 0.00 | 92 | 1016.2 |
| 20260503054927 | 10 | 306 | 1.6 | 4.8 | 0.00 | 2.39 | 0.00 | 92 | 1015.9 |
| 20260503054436 | 10 | 318 | 1.6 | 4.8 | 0.00 | 2.39 | 0.00 | 92 | 1015.8 |
| 20260503053925 | 10 | 326 | 1.6 | 4.8 | 0.00 | 2.39 | 0.00 | 92 | 1015.8 |
| 20260503052420 | 10 | 304 | 1.6 | 4.8 | 0.00 | 2.39 | 0.00 | 91 | 1015.8 |
| 20260503051919 | 10 | 307 | 1.6 | 4.8 | 0.00 | 2.39 | 0.00 | 91 | 1015.8 |
| 20260503051408 | 10 | 293 | 1.6 | 4.8 | 0.00 | 2.39 | 0.00 | 91 | 1015.8 |
| 20260503050909 | 10 | 307 | 3.2 | 4.8 | 0.00 | 2.39 | 0.00 | 91 | 1015.7 |
| 20260503050402 | 11 | 351 | 1.6 | 4.8 | 0.00 | 2.39 | 0.00 | 91 | 1015.7 |
| 20260503045932 | 11 | 322 | 1.6 | 4.8 | 0.00 | 2.39 | 0.00 | 91 | 1015.8 |
| 20260503044912 | 11 | 331 | 0.0 | 4.8 | 0.00 | 2.39 | 0.00 | 91 | 1015.6 |
| 20260503044402 | 11 | 332 | 3.2 | 6.4 | 0.00 | 2.39 | 0.00 | 91 | 1015.7 |
| 20260503043943 | 11 | 320 | 3.2 | 8.0 | 0.00 | 2.39 | 0.00 | 91 | 1015.7 |
| 20260503043427 | 11 | 328 | 4.8 | 8.0 | 0.00 | 2.39 | 0.00 | 91 | 1015.5 |
| 20260503042931 | 11 | 337 | 3.2 | 8.0 | 0.00 | 2.39 | 0.00 | 91 | 1015.3 |
| 20260503042437 | 11 | 335 | 4.8 | 11.3 | 0.00 | 2.39 | 0.00 | 91 | 1015.5 |
| 20260503041434 | 11 | 333 | 4.8 | 14.5 | 0.00 | 2.39 | 0.00 | 91 | 1015.4 |
| 20260503040414 | 12 | 329 | 6.4 | 12.9 | 0.00 | 2.39 | 0.00 | 91 | 1015.4 |
| 20260503035907 | 12 | 319 | 3.2 | 8.0 | 0.00 | 2.39 | 2.39 | 91 | 1015.3 |
| 20260503035413 | 12 | 317 | 3.2 | 8.0 | 0.00 | 2.39 | 2.39 | 91 | 1015.2 |
| 20260503034926 | 12 | 322 | 3.2 | 9.7 | 0.00 | 2.39 | 2.39 | 91 | 1015.1 |
| 20260503034419 | 12 | 311 | 4.8 | 9.7 | 0.00 | 2.39 | 2.39 | 91 | 1015.0 |
| 20260503033433 | 12 | 308 | 4.8 | 9.7 | 0.00 | 2.39 | 2.39 | 91 | 1015.0 |
| 20260503032907 | 12 | 301 | 3.2 | 9.7 | 0.00 | 2.39 | 2.39 | 91 | 1014.8 |
| 20260503032401 | 12 | 306 | 3.2 | 8.0 | 0.00 | 2.39 | 2.39 | 91 | 1014.8 |
| 20260503031920 | 12 | 316 | 3.2 | 8.0 | 0.00 | 2.39 | 2.39 | 91 | 1014.7 |
| 20260503031424 | 12 | 326 | 4.8 | 8.0 | 0.00 | 2.39 | 2.39 | 91 | 1014.6 |
| 20260503030903 | 12 | 302 | 3.2 | 6.4 | 0.00 | 2.39 | 2.39 | 91 | 1014.5 |
| 20260503030412 | 12 | 304 | 1.6 | 6.4 | 0.00 | 2.39 | 2.39 | 91 | 1014.3 |
| 20260503025902 | 12 | 298 | 3.2 | 11.3 | 0.00 | 2.39 | 2.39 | 91 | 1014.2 |
| 20260503025439 | 12 | 312 | 4.8 | 11.3 | 0.00 | 2.39 | 2.39 | 91 | 1014.2 |
| 20260503024919 | 12 | 303 | 4.8 | 8.0 | 0.00 | 2.39 | 2.39 | 91 | 1014.0 |
| 20260503024413 | 12 | 311 | 3.2 | 6.4 | 0.00 | 2.39 | 2.39 | 91 | 1014.1 |
| 20260503023435 | 12 | 310 | 3.2 | 9.7 | 0.00 | 2.39 | 2.39 | 91 | 1014.0 |
| 20260503022940 | 12 | 295 | 4.8 | 6.4 | 0.00 | 2.39 | 2.39 | 91 | 1014.0 |
| 20260503022415 | 12 | 313 | 3.2 | 6.4 | 0.00 | 2.39 | 2.39 | 91 | 1014.0 |
| 20260503021943 | 12 | 314 | 3.2 | 4.8 | 0.00 | 2.39 | 2.39 | 91 | 1013.9 |
| 20260503021411 | 12 | 300 | 3.2 | 4.8 | 0.00 | 2.39 | 2.39 | 91 | 1013.9 |
| 20260503020901 | 12 | 305 | 1.6 | 4.8 | 0.00 | 2.39 | 2.39 | 91 | 1013.6 |
| 20260503020410 | 12 | 292 | 3.2 | 4.8 | 0.00 | 2.39 | 2.39 | 91 | 1013.5 |
| 20260503015945 | 12 | 306 | 3.2 | 4.8 | 0.00 | 2.39 | 2.39 | 91 | 1013.4 |
| 20260503014933 | 12 | 301 | 1.6 | 3.2 | 0.00 | 2.39 | 2.39 | 91 | 1013.3 |
| 20260503014414 | 12 | 319 | 0.0 | 4.8 | 0.00 | 2.39 | 2.39 | 91 | 1013.2 |
| 20260503013913 | 12 | 304 | 1.6 | 4.8 | 0.00 | 2.39 | 2.39 | 91 | 1013.2 |
| 20260503013436 | 12 | 321 | 1.6 | 4.8 | 0.00 | 2.39 | 2.39 | 91 | 1013.2 |
| 20260503012909 | 12 | 316 | 1.6 | 6.4 | 0.00 | 2.39 | 2.39 | 91 | 1013.3 |
| 20260503012442 | 12 | 325 | 1.6 | 6.4 | 0.00 | 2.39 | 2.39 | 91 | 1013.2 |
| 20260503011935 | 12 | 329 | 1.6 | 6.4 | 0.00 | 2.39 | 2.39 | 91 | 1013.2 |
| 20260503010933 | 12 | 341 | 4.8 | 8.0 | 0.00 | 2.39 | 2.39 | 91 | 1013.2 |
| 20260503010411 | 12 | 296 | 3.2 | 8.0 | 0.00 | 2.39 | 2.39 | 91 | 1013.3 |
| 20260503005436 | 12 | 338 | 4.8 | 12.9 | 0.00 | 2.39 | 2.39 | 90 | 1013.0 |
| 20260503004929 | 12 | 320 | 3.2 | 12.9 | 0.00 | 2.39 | 2.39 | 90 | 1013.0 |
| 20260503004417 | 12 | 333 | 6.4 | 12.9 | 0.00 | 2.39 | 2.39 | 90 | 1013.0 |
| 20260503003917 | 12 | 305 | 4.8 | 8.0 | 0.00 | 2.39 | 2.39 | 90 | 1013.0 |
| 20260503003441 | 12 | 308 | 3.2 | 6.4 | 0.00 | 2.39 | 2.39 | 91 | 1012.8 |
| 20260503002927 | 12 | 311 | 3.2 | 8.0 | 0.00 | 2.39 | 2.39 | 90 | 1012.7 |
| 20260503002433 | 12 | 333 | 4.8 | 8.0 | 0.00 | 2.39 | 2.39 | 90 | 1012.4 |
| 20260503001912 | 13 | 314 | 3.2 | 12.9 | 0.00 | 2.39 | 2.39 | 90 | 1012.3 |
| 20260503001428 | 13 | 7 | 1.6 | 12.9 | 0.00 | 2.39 | 2.39 | 90 | 1012.4 |
| 20260503000941 | 13 | 330 | 6.4 | 12.9 | 0.00 | 2.39 | 2.39 | 90 | 1012.5 |
| 20260503000426 | 13 | 316 | 3.2 | 12.9 | 0.00 | 2.41 | 2.39 | 90 | 1012.5 |
| 20260502235411 | 13 | 299 | 4.8 | 11.3 | 0.00 | 2.44 | 2.39 | 90 | 1012.3 |
| 20260502234927 | 13 | 327 | 3.2 | 11.3 | 0.00 | 2.46 | 2.39 | 90 | 1012.1 |
| 20260502234438 | 13 | 312 | 3.2 | 12.9 | 0.00 | 2.49 | 2.39 | 90 | 1012.0 |
| 20260502233932 | 13 | 322 | 4.8 | 12.9 | 0.00 | 2.49 | 2.39 | 90 | 1012.0 |
| 20260502233422 | 13 | 333 | 3.2 | 11.3 | 0.00 | 2.49 | 2.39 | 90 | 1011.9 |
| 20260502232924 | 13 | 327 | 3.2 | 14.5 | 0.00 | 2.49 | 2.39 | 90 | 1011.9 |
| 20260502232421 | 13 | 322 | 6.4 | 14.5 | 0.00 | 2.49 | 2.39 | 90 | 1011.9 |
| 20260502231904 | 13 | 331 | 6.4 | 12.9 | 0.00 | 2.49 | 2.39 | 90 | 1011.6 |
| 20260502231417 | 13 | 322 | 4.8 | 9.7 | 0.00 | 2.49 | 2.39 | 90 | 1011.4 |
| 20260502230919 | 13 | 341 | 4.8 | 14.5 | 0.00 | 2.49 | 2.39 | 90 | 1011.1 |
| 20260502230418 | 13 | 3 | 4.8 | 19.3 | 0.00 | 2.49 | 2.39 | 90 | 1011.3 |
| 20260502225901 | 13 | 320 | 4.8 | 19.3 | 0.00 | 2.49 | 2.39 | 90 | 1011.4 |
| 20260502225408 | 13 | 333 | 6.4 | 17.7 | 0.00 | 2.49 | 2.39 | 90 | 1011.5 |
| 20260502224902 | 13 | 316 | 8.0 | 17.7 | 0.00 | 2.49 | 2.39 | 90 | 1011.5 |
| 20260502224408 | 13 | 330 | 6.4 | 16.1 | 0.00 | 2.49 | 2.39 | 90 | 1011.6 |
| 20260502223945 | 13 | 324 | 4.8 | 16.1 | 0.00 | 2.49 | 2.39 | 90 | 1011.6 |
| 20260502223421 | 13 | 316 | 8.0 | 19.3 | 0.00 | 2.49 | 2.39 | 90 | 1011.7 |
| 20260502222933 | 13 | 343 | 4.8 | 20.9 | 0.00 | 2.49 | 2.39 | 90 | 1011.6 |
| 20260502222441 | 13 | 326 | 11.3 | 20.9 | 0.00 | 2.49 | 2.39 | 90 | 1011.5 |
| 20260502221911 | 13 | 321 | 6.4 | 16.1 | 0.00 | 2.49 | 2.39 | 90 | 1011.4 |
| 20260502220935 | 13 | 327 | 11.3 | 17.7 | 0.00 | 2.49 | 2.39 | 91 | 1011.2 |
| 20260502220405 | 13 | 309 | 6.4 | 17.7 | 0.03 | 2.49 | 2.39 | 91 | 1011.2 |
| 20260502215432 | 13 | 332 | 11.3 | 16.1 | 0.03 | 2.49 | 2.39 | 91 | 1011.1 |